Regional Weather Roundup
Issued by NWS

Home | Current Version | Previous Version | Text Only | Print | Product List | Glossary On
Versions: 1 2 3 4 5 6 7 8 9 10 11 12 13 14 15 16 17 18 19 20 21 22 23 24 25 26 27 28 29 30 31 32 33 34 35 36 37 38 39 40 41 42 43 44 45 46 47 48 49 50
000
ASUS43 KLSX 240757
RWRMO

WEATHER SUMMARY FOR MISSOURI
NATIONAL WEATHER SERVICE SPRINGFIELD MO
300 AM CDT TUE MAY 24 2016

NOTE: "FAIR" INDICATES FEW OR NO CLOUDS BELOW 12,000 FEET WITH NO
       SIGNIFICANT WEATHER AND/OR OBSTRUCTIONS TO VISIBILITY.
       CURRENT SKY AND/OR WEATHER CONDITIONS ARE NOT AVAILABLE FOR
       CHILLICOTHE AND FARMINGTON.

MOZ001>031-035>038-043-044-053-054-240900-
...NORTHERN AND WESTERN MISSOURI...

CITY           SKY/WX    TMP DP  RH WIND       PRES   REMARKS
KANSAS CTY INT PTCLDY    62  60  93 S10       29.88S
LEE`S SUMMIT   PTCLDY    63  60  90 S12       29.89F
ST JOSEPH      PTCLDY    64  61  90 S9        29.87F
CHILLICOTHE      N/A     65  61  87 S6        29.90F

$$
MOZ066>068-077>081-088>096-101>105-240900-
...SOUTHWEST MISSOURI...

CITY           SKY/WX    TMP DP  RH WIND       PRES   REMARKS
SPRINGFIELD    CLOUDY    64  60  87 S8        29.92F
JOPLIN         MOCLDY    65  62  90 S6        29.89F

$$
MOZ032>034-039>042-045>050-055>058-069>072-240900-
...CENTRAL MISSOURI...

CITY           SKY/WX    TMP DP  RH WIND       PRES   REMARKS
COLUMBIA       NOT AVBL
JEFFERSON CITY PTCLDY    64  59  83 E5        29.94S
ROLLA          CLOUDY    65  57  75 S5        29.95S
SEDALIA        CLEAR     60  58  92 S6        29.93F
WARRENSBURG    MOCLDY    59  57  94 SE5       29.91S

$$
MOZ051-052-059>065-240900-
...EAST CENTRAL MISSOURI...

CITY           SKY/WX    TMP DP  RH WIND       PRES   REMARKS
ST LOUIS INTL  CLOUDY    70  54  56 S6        29.97S

$$
MOZ072>076-082>087-097>100-106>115-240900-
...SOUTH CENTRAL AND SOUTHEAST MISSOURI...

CITY           SKY/WX    TMP DP  RH WIND       PRES   REMARKS
CAPE GIRARDEAU MOCLDY    64  58  80 NE3       29.98R
POPLAR BLUFF   LGT RAIN  66  63  90 CALM      29.97S
WEST PLAINS    CLOUDY    65  56  72 CALM      29.98F

$$


USA.gov is the U.S. government's official web portal to all federal, state and local government web resources and services.